Estación municipal de Monistrol de Calders (Moianès, P.N.de Sant Llorenç del Munt i l'Obac)

Consulta los datos en tiempo real de la estación municipal de Monistrol de Calders





Hora UTC 10:40
Temperatura 17.4 ºC
Humedad 74.0 %
Presión 1009.9 hPa
Pluja 0.2 mm
Velocidad viento 1.6 km/h
Dirección viento W

Webcam

Datos diarios 2026-05-05



Hora UTC (invierno +1h; verano +2h)
Temperatura (ºC) Humedad (%) Presión (hPa) Velocidad viento (km/h) Precipitación (mm)
Hora UTC Aire Humedad Presión Vel. Dir. Vel. Max Dir. Intent. máx 5 min.
00:05 8.8 94.0 1010.8 1.6 SSE 1.6 0.0
00:10 8.8 94.0 1010.8 0.0 SSW 3.2 0.2
00:15 8.7 94.0 1010.9 0.0 SSW 1.6 0.0
00:20 8.7 94.0 1010.9 0.0 SSW 1.6 0.0
00:25 8.7 95.0 1011.0 3.2 SSE 4.8 0.0
00:30 8.6 94.0 1010.9 1.6 SE 4.8 0.0
00:35 8.5 94.0 1010.9 1.6 SE 4.8 0.0
00:40 8.4 94.0 1010.9 4.8 ESE 6.4 0.0
00:45 8.3 95.0 1011.0 3.2 SSE 6.4 0.0
00:50 8.3 95.0 1011.0 4.8 SSE 6.4 0.0
00:55 8.3 95.0 1010.9 6.4 S 6.4 0.0
01:00 8.2 95.0 1011.0 4.8 S 6.4 0.0
01:05 8.1 95.0 1010.8 4.8 S 6.4 0.0
01:10 7.9 95.0 1010.8 4.8 SSE 6.4 0.0
01:15 7.9 95.0 1010.8 3.2 SE 6.4 0.0
01:20 7.9 95.0 1010.7 3.2 SE 4.8 0.0
01:25 7.8 95.0 1010.8 1.6 S 4.8 0.0
01:30 7.8 95.0 1010.9 1.6 SSE 3.2 0.0
01:35 7.8 95.0 1010.9 3.2 SSE 4.8 0.0
01:40 7.7 95.0 1010.8 1.6 SSE 4.8 0.0
01:45 7.7 95.0 1010.8 0.0 SSE 3.2 0.0
01:50 7.6 95.0 1010.8 1.6 SSE 4.8 0.0
01:55 7.6 95.0 1010.7 1.6 SE 4.8 0.0
02:00 7.5 95.0 1010.8 1.6 SSE 4.8 0.0
02:05 7.4 95.0 1010.7 3.2 SE 4.8 0.0
02:10 7.4 95.0 1010.8 1.6 ESE 4.8 0.0
02:15 7.4 95.0 1010.8 0.0 ESE 3.2 0.0
02:20 7.4 95.0 1010.8 1.6 SE 4.8 0.0
02:25 7.3 95.0 1010.8 1.6 S 4.8 0.0
02:30 7.3 95.0 1010.8 3.2 SSE 4.8 0.0
02:35 7.2 95.0 1010.8 4.8 SE 6.4 0.0
02:40 7.1 95.0 1010.9 3.2 ESE 6.4 0.0
02:45 7.1 95.0 1010.9 1.6 SE 6.4 0.0
02:50 7.0 95.0 1010.9 3.2 ESE 8.0 0.0
02:55 6.9 95.0 1010.9 3.2 SE 8.0 0.0
03:00 6.8 95.0 1010.9 0.0 SE 4.8 0.0
03:05 6.8 95.0 1010.8 1.6 SE 4.8 0.0
03:10 6.7 95.0 1010.7 0.0 SSE 4.8 0.0
03:15 6.6 95.0 1010.7 1.6 SSE 4.8 0.0
03:20 6.6 95.0 1010.7 3.2 ESE 3.2 0.0
03:25 6.5 95.0 1010.7 1.6 ESE 3.2 0.0
03:30 6.5 95.0 1010.7 0.0 ESE 1.6 0.0
03:35 6.5 95.0 1010.7 1.6 ESE 3.2 0.0
03:40 6.4 95.0 1010.6 1.6 SE 4.8 0.0
03:45 6.4 95.0 1010.6 0.0 SE 4.8 0.0
03:50 6.3 95.0 1010.6 0.0 SE 1.6 0.0
03:55 6.3 95.0 1010.6 3.2 SE 4.8 0.0
04:00 6.2 95.0 1010.6 3.2 ESE 4.8 0.0
04:05 6.2 95.0 1010.4 4.8 ESE 6.4 0.0
04:10 6.2 95.0 1010.6 1.6 SE 6.4 0.0
04:15 6.2 95.0 1010.6 1.6 SE 4.8 0.0
04:20 6.1 95.0 1010.6 1.6 S 3.2 0.0
04:25 6.1 95.0 1010.7 3.2 SE 4.8 0.0
04:30 6.1 95.0 1010.7 0.0 SSE 6.4 0.0
04:35 6.1 95.0 1010.7 0.0 ESE 4.8 0.0
04:40 6.2 96.0 1010.8 1.6 SE 4.8 0.0
04:45 6.2 96.0 1010.8 0.0 SSE 4.8 0.0
04:50 6.3 96.0 1010.8 0.0 SSE 3.2 0.0
04:55 6.3 95.0 1010.8 1.6 E 4.8 0.0
05:00 6.3 96.0 1011.0 0.0 E 4.8 0.0
05:05 6.4 96.0 1011.0 0.0 E 1.6 0.0
05:10 6.5 96.0 1011.0 0.0 E 1.6 0.0
05:15 6.6 96.0 1011.0 0.0 E 1.6 0.0
05:20 6.6 96.0 1011.0 0.0 E 1.6 0.0
05:25 6.7 96.0 1011.0 0.0 E 0.0 0.0
05:30 6.8 96.0 1010.9 0.0 E 0.0 0.0
05:35 6.9 96.0 1011.0 0.0 SSE 0.0 0.0
05:40 7.1 96.0 1011.1 0.0 WSW 0.0 0.0
05:45 7.2 96.0 1011.3 0.0 WSW 0.0 0.0
05:50 7.4 96.0 1011.3 3.2 ESE 3.2 0.0
05:55 7.6 96.0 1011.1 3.2 E 4.8 0.0
06:00 7.7 96.0 1011.1 1.6 E 4.8 0.0
06:05 7.8 96.0 1011.1 0.0 N 4.8 0.0
06:10 7.9 96.0 1011.1 0.0 N 3.2 0.0
06:15 7.9 96.0 1011.3 0.0 N 1.6 0.0
06:20 8.1 96.0 1011.2 0.0 N 1.6 0.0
06:25 8.2 96.0 1011.2 0.0 N 1.6 0.0
06:30 8.4 96.0 1011.3 0.0 N 3.2 0.0
06:35 8.6 96.0 1011.2 0.0 N 3.2 0.0
06:40 8.8 97.0 1011.2 1.6 NE 3.2 0.0
06:45 8.8 96.0 1011.2 0.0 NE 3.2 0.0
06:50 9.0 97.0 1011.1 0.0 N 1.6 0.0
06:55 9.2 96.0 1011.1 1.6 NNW 3.2 0.0
07:00 9.4 97.0 1011.1 0.0 NW 3.2 0.0
07:05 9.6 96.0 1011.0 0.0 NNW 3.2 0.0
07:10 9.8 97.0 1010.9 0.0 NNW 3.2 0.0
07:15 10.0 97.0 1011.2 0.0 WNW 3.2 0.0
07:20 10.0 97.0 1011.3 3.2 W 4.8 0.0
07:25 10.0 97.0 1011.3 0.0 NW 4.8 0.0
07:30 10.0 97.0 1011.3 0.0 NW 3.2 0.0
07:35 10.0 96.0 1011.1 0.0 NW 3.2 0.0
07:40 10.2 96.0 1011.0 3.2 NNW 4.8 0.0
07:45 10.4 97.0 1011.2 4.8 E 4.8 0.0
07:50 10.4 96.0 1011.1 0.0 NE 4.8 0.0
07:55 10.7 96.0 1011.0 0.0 NW 4.8 0.0
08:00 10.9 96.0 1011.0 1.6 NNW 4.8 0.0
08:05 10.9 96.0 1010.9 3.2 WNW 4.8 0.0
08:10 10.8 96.0 1010.9 3.2 WNW 4.8 0.0
08:15 11.0 96.0 1011.0 3.2 NW 4.8 0.0
08:20 11.1 96.0 1010.9 1.6 NW 4.8 0.0
08:25 11.2 96.0 1010.7 3.2 NW 4.8 0.0
08:30 11.4 96.0 1010.7 0.0 SSW 4.8 0.0
08:35 11.0 94.0 1010.6 0.0 ENE 4.8 0.0
08:40 11.1 95.0 1010.5 3.2 SSE 3.2 0.0
08:45 11.1 94.0 1010.6 3.2 S 4.8 0.0
08:50 11.0 94.0 1010.7 1.6 SSW 4.8 0.0
08:55 11.1 94.0 1010.9 1.6 WSW 4.8 0.0
09:00 11.2 94.0 1010.8 1.6 S 4.8 0.0
09:05 11.3 93.0 1010.8 3.2 SE 4.8 0.0
09:10 11.4 93.0 1010.7 1.6 ESE 4.8 0.0
09:15 11.6 91.0 1010.7 1.6 E 6.4 0.0
09:20 11.7 91.0 1010.5 1.6 E 6.4 0.0
09:25 12.1 92.0 1010.3 0.0 S 3.2 0.0
09:30 12.8 91.0 1010.3 3.2 E 4.8 0.0
09:35 13.3 89.0 1010.2 1.6 SSE 4.8 0.0
09:40 13.5 87.0 1010.2 1.6 ENE 4.8 0.0
09:45 13.9 89.0 1010.3 4.8 WNW 4.8 0.0
09:50 14.2 87.0 1010.2 1.6 N 4.8 0.0
09:55 14.3 86.0 1010.1 1.6 NNW 4.8 0.0
10:00 14.8 87.0 1010.2 0.0 NNW 3.2 0.0
10:05 15.4 86.0 1010.1 3.2 W 3.2 0.0
10:10 16.1 84.0 1010.1 3.2 ENE 4.8 0.0
10:15 16.6 82.0 1010.0 1.6 W 4.8 0.0
10:20 16.9 78.0 1010.0 3.2 E 6.4 0.0
10:25 17.2 78.0 1010.0 3.2 NNW 6.4 0.0
10:30 17.3 76.0 1009.9 3.2 WNW 8.0 0.0
10:35 17.3 75.0 1010.0 3.2 WNW 8.0 0.0
10:40 17.4 74.0 1009.9 1.6 W 4.8 0.0
Máxima 17.4 97.0 1011.3 6.4 S 8.0 0.2
Mínima 6.1 74.0 1009.9
Total 0.2